TimeCDT,TemperatureF,Dew PointF,Humidity,Sea Level PressureIn,VisibilityMPH,Wind Direction,Wind SpeedMPH,Gust SpeedMPH,PrecipitationIn,Events,Conditions,WindDirDegrees,DateUTC
12:15 AM,59.4,55.0,86,30.01,10.0,SSE,3.5,-,N/A,,Clear,150,2013-10-11 05:15:00
12:35 AM,58.8,55.0,87,30.01,10.0,SE,4.6,-,N/A,,Clear,140,2013-10-11 05:35:00
12:55 AM,59.0,55.2,87,30.01,10.0,SE,3.5,-,N/A,,Clear,140,2013-10-11 05:55:00
1:15 AM,58.8,55.4,88,30.01,10.0,SE,3.5,-,N/A,,Clear,130,2013-10-11 06:15:00
1:55 AM,56.8,54.1,91,30.00,10.0,SE,4.6,-,N/A,,Clear,130,2013-10-11 06:55:00
2:15 AM,56.5,54.0,91,30.01,7.0,SE,3.5,-,N/A,,Clear,140,2013-10-11 07:15:00
2:35 AM,56.5,54.0,91,30.01,7.0,Calm,Calm,-,N/A,,Clear,0,2013-10-11 07:35:00
2:55 AM,56.8,54.5,92,30.01,7.0,SSE,3.5,-,N/A,,Clear,150,2013-10-11 07:55:00
3:15 AM,56.3,54.0,92,30.01,7.0,SSE,3.5,-,N/A,,Clear,160,2013-10-11 08:15:00
3:35 AM,54.5,52.0,91,30.02,4.0,Calm,Calm,-,N/A,,Clear,0,2013-10-11 08:35:00
3:55 AM,53.2,50.2,89,30.03,10.0,Calm,Calm,-,N/A,,Clear,0,2013-10-11 08:55:00
4:15 AM,52.9,49.8,89,30.03,7.0,Calm,Calm,-,N/A,,Clear,0,2013-10-11 09:15:00
4:35 AM,51.6,49.3,92,30.03,5.0,Calm,Calm,-,N/A,,Clear,0,2013-10-11 09:35:00
4:55 AM,53.6,51.4,92,30.02,2.0,ESE,3.5,-,N/A,,Clear,120,2013-10-11 09:55:00
5:15 AM,53.2,51.4,94,30.03,0.8,Calm,Calm,-,N/A,,Mist,0,2013-10-11 10:15:00
5:35 AM,53.6,51.8,94,30.03,0.5,SE,3.5,-,N/A,Fog,Fog,130,2013-10-11 10:35:00
5:55 AM,54.1,52.7,95,30.03,1.0,Calm,Calm,-,N/A,,Mist,0,2013-10-11 10:55:00
6:15 AM,54.3,52.7,94,30.03,3.0,Calm,Calm,-,N/A,,Clear,0,2013-10-11 11:15:00
6:35 AM,54.0,52.3,94,30.03,2.5,Calm,Calm,-,N/A,,Clear,0,2013-10-11 11:35:00
6:55 AM,53.8,52.2,94,30.03,3.0,SE,3.5,-,N/A,,Clear,140,2013-10-11 11:55:00
7:15 AM,53.6,51.8,94,30.03,1.5,SE,3.5,-,N/A,,Mist,140,2013-10-11 12:15:00
7:35 AM,54.7,53.1,94,30.03,2.5,SE,3.5,-,N/A,,Clear,140,2013-10-11 12:35:00
7:55 AM,56.3,54.7,94,30.03,3.0,SSE,3.5,-,N/A,,Clear,150,2013-10-11 12:55:00
8:15 AM,58.1,56.3,94,30.04,4.0,SSE,3.5,-,N/A,,Clear,150,2013-10-11 13:15:00
8:35 AM,59.5,57.7,94,30.04,5.0,SE,3.5,-,N/A,,Clear,140,2013-10-11 13:35:00
8:55 AM,61.7,58.1,88,30.04,7.0,SSE,6.9,-,N/A,,Clear,150,2013-10-11 13:55:00
9:15 AM,63.1,58.3,84,30.04,10.0,SSE,6.9,-,N/A,,Clear,150,2013-10-11 14:15:00
9:35 AM,64.4,58.5,81,30.03,10.0,SE,5.8,-,N/A,,Scattered Clouds,140,2013-10-11 14:35:00
9:55 AM,67.5,59.5,76,30.03,10.0,South,8.1,-,N/A,,Mostly Cloudy,180,2013-10-11 14:55:00
10:15 AM,68.9,58.8,70,30.03,10.0,SSE,10.4,-,N/A,,Mostly Cloudy,160,2013-10-11 15:15:00
10:35 AM,70.0,58.8,68,30.02,10.0,SSE,8.1,-,N/A,,Scattered Clouds,150,2013-10-11 15:35:00
10:55 AM,70.5,58.6,66,30.02,10.0,South,11.5,16.1,N/A,,Mostly Cloudy,190,2013-10-11 15:55:00
11:15 AM,72.5,57.7,60,30.02,10.0,South,13.8,18.4,N/A,,Mostly Cloudy,180,2013-10-11 16:15:00
11:35 AM,73.4,57.0,56,30.01,10.0,South,12.7,19.6,N/A,,Scattered Clouds,170,2013-10-11 16:35:00
11:55 AM,73.9,56.1,54,30.00,10.0,South,12.7,18.4,N/A,,Scattered Clouds,170,2013-10-11 16:55:00
12:15 PM,75.4,56.5,52,29.99,10.0,SE,12.7,-,N/A,,Scattered Clouds,140,2013-10-11 17:15:00
12:35 PM,76.6,55.4,48,29.99,10.0,SSE,11.5,18.4,N/A,,Clear,160,2013-10-11 17:35:00
12:55 PM,76.1,54.3,47,29.97,10.0,SSE,13.8,20.7,N/A,,Clear,150,2013-10-11 17:55:00
1:15 PM,77.0,54.5,46,29.96,10.0,South,12.7,18.4,N/A,,Clear,170,2013-10-11 18:15:00
1:35 PM,77.5,55.4,46,29.94,10.0,SSE,10.4,19.6,N/A,,Clear,160,2013-10-11 18:35:00
1:55 PM,79.0,54.1,42,29.93,10.0,SSE,13.8,17.3,N/A,,Clear,150,2013-10-11 18:55:00
2:15 PM,78.1,53.6,43,29.93,10.0,SE,9.2,19.6,N/A,,Clear,140,2013-10-11 19:15:00
2:35 PM,78.8,52.3,40,29.92,10.0,SE,13.8,21.9,N/A,,Clear,140,2013-10-11 19:35:00
2:55 PM,79.0,52.7,40,29.91,10.0,SE,13.8,23.0,N/A,,Clear,140,2013-10-11 19:55:00
3:15 PM,79.5,51.8,38,29.91,10.0,SSE,15.0,23.0,N/A,,Clear,150,2013-10-11 20:15:00
3:35 PM,79.2,52.2,39,29.90,10.0,SE,16.1,19.6,N/A,,Clear,140,2013-10-11 20:35:00
3:55 PM,79.2,51.6,38,29.90,10.0,SSE,13.8,23.0,N/A,,Clear,150,2013-10-11 20:55:00
4:15 PM,79.5,51.1,37,29.89,10.0,SSE,12.7,21.9,N/A,,Clear,150,2013-10-11 21:15:00
4:35 PM,79.3,52.0,38,29.89,10.0,SSE,12.7,20.7,N/A,,Clear,150,2013-10-11 21:35:00
4:55 PM,78.8,52.5,40,29.90,10.0,SSE,12.7,20.7,N/A,,Clear,150,2013-10-11 21:55:00
5:15 PM,77.9,51.8,40,29.90,10.0,SSE,12.7,19.6,N/A,,Clear,150,2013-10-11 22:15:00
5:35 PM,77.0,51.8,41,29.90,10.0,SSE,9.2,-,N/A,,Clear,150,2013-10-11 22:35:00
5:55 PM,76.1,51.8,43,29.90,10.0,SE,8.1,-,N/A,,Clear,140,2013-10-11 22:55:00
6:15 PM,73.9,52.2,46,29.90,10.0,SE,5.8,-,N/A,,Clear,130,2013-10-11 23:15:00
6:35 PM,71.1,52.7,52,29.91,10.0,SE,4.6,-,N/A,,Clear,140,2013-10-11 23:35:00
6:55 PM,69.1,52.7,56,29.91,10.0,SE,5.8,-,N/A,,Clear,130,2013-10-11 23:55:00
7:15 PM,68.4,53.1,58,29.91,10.0,SE,5.8,-,N/A,,Clear,130,2013-10-12 00:15:00
7:35 PM,67.5,53.6,61,29.92,10.0,SE,4.6,-,N/A,,Clear,140,2013-10-12 00:35:00
7:55 PM,66.2,53.8,64,29.93,10.0,SSE,4.6,-,N/A,,Clear,150,2013-10-12 00:55:00
8:15 PM,65.7,54.0,66,29.93,10.0,SE,5.8,-,N/A,,Clear,140,2013-10-12 01:15:00
8:35 PM,65.7,54.1,66,29.94,10.0,SE,4.6,-,N/A,,Clear,140,2013-10-12 01:35:00
8:55 PM,64.2,54.1,70,29.94,10.0,SSE,4.6,-,N/A,,Clear,150,2013-10-12 01:55:00
9:15 PM,63.9,54.3,71,29.94,10.0,SSE,4.6,-,N/A,,Clear,150,2013-10-12 02:15:00
9:35 PM,64.4,54.9,71,29.94,10.0,SSE,4.6,-,N/A,,Clear,150,2013-10-12 02:35:00
9:55 PM,65.7,55.8,70,29.94,10.0,SSE,6.9,-,N/A,,Clear,150,2013-10-12 02:55:00
10:15 PM,66.6,56.5,70,29.93,10.0,SSE,6.9,-,N/A,,Clear,160,2013-10-12 03:15:00
10:35 PM,66.4,56.7,71,29.94,10.0,SE,5.8,-,N/A,,Clear,140,2013-10-12 03:35:00
10:55 PM,63.7,56.3,77,29.94,10.0,SE,4.6,-,N/A,,Clear,130,2013-10-12 03:55:00
11:15 PM,63.5,56.1,77,29.94,10.0,SE,4.6,-,N/A,,Clear,130,2013-10-12 04:15:00
11:35 PM,62.8,55.8,78,29.94,10.0,SE,3.5,-,N/A,,Clear,140,2013-10-12 04:35:00
11:55 PM,62.6,55.8,78,29.94,10.0,SSE,3.5,-,N/A,,Clear,160,2013-10-12 04:55:00